OH2TH Weather Reports


time (UTC)temp
F
wind
direction
speed
knots
gust
knots
rain 1hr
in
rain 24hr
in
rain mn
in
humidity
%
barometer
mb
20260506181504 48 62 0.0 0.0 0.00 0.00 0.00 50 101.0
20260506180004 48 322 0.0 0.0 0.00 0.00 0.00 46 101.0
20260506174503 48 44 0.0 0.0 0.00 0.00 0.00 44 101.0
20260506173003 50 200 0.0 0.0 0.00 0.00 0.00 43 101.0
20260506171502 50 214 0.0 0.0 0.00 0.00 0.00 42 101.0
20260506170002 50 162 0.0 0.0 0.00 0.00 0.00 41 101.0
20260506164502 50 135 0.0 0.0 0.00 0.00 0.00 42 101.0
20260506163002 51 152 0.0 0.0 0.00 0.00 0.00 41 101.0
20260506161502 51 289 0.0 0.0 0.00 0.00 0.00 41 101.0
20260506160002 51 132 0.0 0.0 0.00 0.00 0.00 41 101.0
20260506154502 51 206 0.0 0.0 0.00 0.00 0.00 41 101.0
20260506153001 51 160 0.0 0.0 0.00 0.00 0.00 39 101.0
20260506151501 51 171 0.0 0.0 0.00 0.00 0.00 39 101.0
20260506150002 51 240 0.0 0.0 0.00 0.00 0.00 39 101.0
20260506144501 51 177 0.0 0.0 0.00 0.00 0.00 40 101.0
20260506143001 52 152 0.0 0.0 0.00 0.00 0.00 39 101.0
20260506141501 52 116 0.0 0.0 0.00 0.00 0.00 35 101.0
20260506140001 52 168 0.0 0.0 0.00 0.00 0.00 38 101.0
20260506134501 52 187 0.0 0.0 0.00 0.00 0.00 36 101.0
20260506133001 52 221 0.0 0.0 0.00 0.00 0.00 38 101.0
20260506131500 52 162 0.0 0.0 0.00 0.00 0.00 37 101.0
20260506130000 52 172 0.0 0.0 0.00 0.00 0.00 37 101.0
20260506124505 52 117 0.0 0.0 0.00 0.00 0.00 39 101.0
20260506123005 52 17 0.0 0.0 0.00 0.00 0.00 39 101.0
20260506121504 52 123 0.0 0.0 0.00 0.00 0.00 37 101.0
20260506120005 50 155 0.0 0.0 0.00 0.00 0.00 39 101.0
20260506114504 52 133 0.0 0.0 0.00 0.00 0.00 39 101.0
20260506113004 54 215 0.0 0.0 0.00 0.00 0.00 35 101.0
20260506111504 54 217 0.0 0.0 0.00 0.00 0.00 32 101.0
20260506110004 55 170 0.0 0.0 0.00 0.00 0.00 25 101.0
20260506104504 55 355 0.0 0.0 0.00 0.00 0.00 25 101.0
20260506103004 55 126 0.0 0.0 0.00 0.00 0.00 26 101.0
20260506101503 54 312 0.0 0.0 0.00 0.00 0.00 28 101.0
20260506100004 54 67 0.0 0.0 0.00 0.00 0.00 27 101.0
20260506094503 52 104 0.0 0.0 0.00 0.00 0.00 33 101.0
20260506093003 52 141 0.0 0.0 0.00 0.00 0.00 30 101.0
20260506091503 52 319 0.0 0.0 0.00 0.00 0.00 33 101.0
20260506090003 52 70 0.0 0.0 0.00 0.00 0.00 31 101.0
20260506084502 54 42 0.0 0.0 0.00 0.00 0.00 31 101.0
20260506083002 54 319 0.0 0.0 0.00 0.00 0.00 30 101.0
20260506081502 54 357 0.0 0.0 0.00 0.00 0.00 29 101.0
20260506073002 50 302 0.0 0.0 0.00 0.00 0.00 42 101.0
20260506071502 50 55 0.0 0.0 0.00 0.00 0.00 42 101.0
20260506061501 45 147 0.0 0.0 0.00 0.00 0.00 52 101.0
20260506044504 36 350 0.0 0.0 0.00 0.00 0.00 77 101.0
20260506043004 36 142 0.0 0.0 0.00 0.00 0.00 81 101.0
20260506041503 34 304 0.0 0.0 0.00 0.00 0.00 82 101.0
20260506040003 34 191 0.0 0.0 0.00 0.00 0.00 81 101.0
20260506034502 0 107 0.0 0.0 0.00 0.00 0.00 83 101.0
20260506033001 0 141 0.0 0.0 0.00 0.00 0.00 81 101.0
20260506031500 32 129 0.0 0.0 0.00 0.00 0.00 83 101.0
20260506030004 32 315 0.0 0.0 0.00 0.00 0.00 84 101.0
20260506024503 32 129 0.0 0.0 0.00 0.00 0.00 82 101.0
20260506023003 30 129 0.0 0.0 0.00 0.00 0.00 82 101.0
20260506021502 30 138 0.0 0.0 0.00 0.00 0.00 85 101.0
20260506020001 32 50 0.0 0.0 0.00 0.00 0.00 83 101.0
20260506014501 32 55 0.0 0.0 0.00 0.00 0.00 83 101.0
20260506013005 32 66 0.0 0.0 0.00 0.00 0.00 82 101.0
20260506011504 0 135 0.0 0.0 0.00 0.00 0.00 80 101.0
20260506010003 32 230 0.0 0.0 0.00 0.00 0.00 83 101.0
20260506004503 34 129 0.0 0.0 0.00 0.00 0.00 80 101.0
20260506003002 34 50 0.0 0.0 0.00 0.00 0.00 81 101.0
20260506001501 34 212 0.0 0.0 0.00 0.00 0.00 79 101.0
20260506000000 34 129 0.0 0.0 0.00 0.00 0.00 76 101.0
20260505234504 34 129 0.0 0.0 0.00 0.00 0.00 79 101.0
20260505233004 35 230 0.0 0.0 0.00 0.00 0.00 76 101.0
20260505231503 35 147 0.0 0.0 0.00 0.00 0.00 74 101.0
20260505230002 35 129 0.0 0.0 0.00 0.00 0.00 76 101.0
20260505224502 37 304 0.0 0.0 0.00 0.00 0.00 75 101.0
20260505223001 37 230 0.0 0.0 0.00 0.00 0.00 72 101.0
20260505221500 37 37 0.0 0.0 0.00 0.00 0.00 73 101.0
20260505220005 37 135 0.0 0.0 0.00 0.00 0.00 74 101.0
20260505214504 39 129 0.0 0.0 0.00 0.00 0.00 70 101.0
20260505213003 39 69 0.0 0.0 0.00 0.00 0.00 68 101.0
20260505211503 39 135 0.0 0.0 0.00 0.00 0.00 70 101.0
20260505210002 39 272 0.0 0.0 0.00 0.00 0.00 67 101.0
20260505204501 40 129 0.0 0.0 0.00 0.89 0.89 64 101.0
20260505203000 40 135 0.0 0.0 0.00 0.89 0.89 62 101.0
20260505201504 40 113 0.0 0.0 0.00 0.89 0.89 63 101.0
20260505200004 40 322 0.0 0.0 0.00 0.89 0.89 62 101.0
20260505194504 42 142 0.0 0.0 0.00 0.89 0.89 59 101.0
20260505193003 42 50 0.0 0.0 0.00 0.89 0.89 58 100.0
20260505191503 42 193 0.0 0.0 0.00 0.89 0.89 56 100.0
20260505190003 42 89 0.0 0.0 0.00 0.89 0.89 52 100.0
20260505184502 44 50 0.0 0.0 0.00 0.89 0.89 49 100.0
20260505183001 44 214 0.0 0.0 0.00 0.89 0.89 47 100.0